Zurück zum Katalog

STARLINK-32506

AktivKommunikationVLEO
NORAD 62167·PAYLOAD·🇺🇸 United States

Gestartet Nov 30, 2024 von Vandenberg Space Force Base

Loading…

Nächste Überflüge (nächste 24 Stunden)

TLE

AktuellSource: CelesTrak SupGP

Epoche: Sep 14, 2026, 22:30 UTC

1 62167C 24225E   26257.93798611 -.00004584  00000+0 -38416-3 0  2577
2 62167  70.0018  47.4729 0003009 271.2438 248.9225 14.98335915    13

Verfolge STARLINK-32506 in Echtzeit mit AllMySat

Download on the App Store